HULIANWANG DIGUI-123 (67063 NORAD) Tracking and Keplerian Element Data

This shows tracking and keplerian element data for the satellite.

Feedback or suggestion? Click here.




ElementValue
Catalog67063
NameHULIANWANG DIGUI-123
Epoch Orbit118
Epoch Day354.20185457
Epoch Year2025
RAAN340.7243
Inclination50.0061
Eccentricity0.0012478
Argument of Perigee278.7083
Mean Anonmoly81.2417
Mean Motion14.25888399
Decay Rate8.4E-07
L11 67063U 25295E 25354.20185457 .00000084 00000+0 10184-3 0 9994
L22 67063 50.0061 340.7243 0012478 278.7083 81.2417 14.25888399 1186



Live tracking and technical data element details for HULIANWANG DIGUI-123 (NORAD 67063). HULIANWANG DIGUI-123 can be tracked NOW for your location showing map with azimuth and elevation plus other details from your city location.







IsCatalogInMostPopularTable: catalog: 67063, numindb: 49
Update: records affected: 1



GetName: 67063 HULIANWANG DIGUI-123

Hit Count: updated at: Tue, 17 Feb 2026 12:36:33 GMT